Waarnemingen

Advertentie
Mijn weer
Mierkenis, Zweden (2121): temperatuur & dauwpunt: 14.11.2017 01:00:00 - 20.11.2017 01:00:00 (CET)Mierkenis, Zweden (2121): windsnelheid & windstoten: 14.11.2017 01:00:00 - 20.11.2017 01:00:00 (CET)Mierkenis, Zweden (2121): windrichting: 14.11.2017 01:00:00 - 20.11.2017 01:00:00 (CET)Mierkenis, Zweden (2121): luchtdruk: 14.11.2017 01:00:00 - 20.11.2017 01:00:00 (CET)Mierkenis, Zweden (2121): zicht: 14.11.2017 01:00:00 - 20.11.2017 01:00:00 (CET)Mierkenis, Zweden (2121): neerslag: 14.11.2017 01:00:00 - 20.11.2017 01:00:00 (CET)
Datum & Tijd tt [°C] td [°C] ff [km/u] ff [kn] fx [km/u] fx [kn] dd ppp [hPa] vv [km] rr [mm]
20.11.2017 01:00:00 - - - - - - - - - -
20.11.2017 00:00:00 -17,1 -19,3 6 4 14 8 WNW 1012,3 50 0,0
19.11.2017 23:00:00 -15,9 -18,1 6 3 14 8 NW 1012,0 50 0,0
19.11.2017 22:00:00 -14,2 -15,9 5 3 12 6 NW 1011,8 50 0,0
19.11.2017 21:00:00 -14,9 -16,9 6 3 14 8 NW 1011,6 50 0,0
19.11.2017 20:00:00 -15,5 -17,6 9 5 14 8 NW 1011,3 49 0,0
19.11.2017 19:00:00 -16,4 -18,6 8 4 14 8 NNW 1011,3 31 0,0
19.11.2017 18:00:00 -16,7 -18,9 7 4 15 8 NW 1011,1 31 0,0
19.11.2017 17:00:00 -16,5 -18,6 7 4 15 8 NW 1010,9 39 0,0
19.11.2017 16:00:00 -18,3 -20,3 7 4 15 8 NW 1011,1 50 0,0
19.11.2017 15:00:00 -16,4 -17,9 8 4 13 7 NW 1010,5 50 0,0
19.11.2017 14:00:00 -13,8 -15,8 6 3 11 6 NW 1009,8 32 0,0
19.11.2017 13:00:00 -11,2 -12,9 6 4 11 6 NW 1009,0 41 0,0
19.11.2017 12:00:00 -10,6 -12,3 5 3 10 6 NNW 1008,7 42 0,0
19.11.2017 11:00:00 -10,3 -11,8 5 3 10 5 NW 1008,5 15 0,0
19.11.2017 10:00:00 -10,6 -12,1 7 4 9 5 W 1008,0 22 0,0
19.11.2017 09:00:00 -12,2 -13,8 3 2 10 6 WNW 1007,8 5 0,0
19.11.2017 08:00:00 -13,2 -14,6 7 4 10 6 NW 1007,4 14 0,0
19.11.2017 07:00:00 -15,7 -17,4 7 4 13 7 NW 1007,3 16 0,0
19.11.2017 06:00:00 -15,5 -17,4 6 4 13 7 WNW 1006,9 15 0,0
19.11.2017 05:00:00 -16,1 -17,9 8 4 12 6 NW 1006,8 39 0,0
19.11.2017 04:00:00 -17,1 -19,0 6 3 9 5 NW 1006,3 49 0,0
19.11.2017 03:00:00 -13,5 -15,2 6 3 9 5 WNW 1005,3 50 0,0
19.11.2017 02:00:00 -11,2 -12,5 5 3 10 5 WNW 1004,4 50 0,0
19.11.2017 01:00:00 -11,3 -12,5 8 5 10 5 NW 1004,1 50 0,0
19.11.2017 00:00:00 -11,0 -12,5 3 2 7 4 NW 1003,8 34 0,0
18.11.2017 23:00:00 -10,0 -11,2 4 2 6 3 NNW 1003,5 29 0,0
18.11.2017 22:00:00 -9,0 -10,2 3 1 6 4 N 1003,1 9 0,0
18.11.2017 21:00:00 -8,9 -10,1 2 1 9 5 ZO 1002,4 19 0,0
18.11.2017 20:00:00 -8,5 -9,7 4 2 15 8 ZO 1001,9 20 0,0
18.11.2017 19:00:00 -8,2 -9,4 5 3 15 8 ZZO 1001,3 15 0,0
18.11.2017 18:00:00 -8,4 -9,5 3 2 8 4 Z 1000,6 22 0,0
18.11.2017 17:00:00 -9,6 -10,7 3 2 9 5 Z 1000,2 47 0,0
18.11.2017 16:00:00 -10,0 -11,5 5 3 9 5 NW 1000,0 14 0,0
18.11.2017 15:00:00 -9,5 -10,8 3 2 6 4 NNW 999,4 21 0,0
18.11.2017 14:00:00 -9,5 -10,7 3 1 5 3 NNW 998,8 6 0,0
18.11.2017 13:00:00 -8,2 -9,3 4 2 5 3 WNW 998,1 8 0,1
18.11.2017 12:00:00 -6,8 -7,9 2 1 5 3 NW 997,4 6 0,1
18.11.2017 11:00:00 -7,0 -8,2 0 0 4 2 N 997,2 2,7 0,2
18.11.2017 10:00:00 -7,0 -8,1 2 1 4 2 WNW 997,0 2,0 0,3
18.11.2017 09:00:00 -7,2 -8,3 0 0 3 2 N 996,5 1,6 0,4
18.11.2017 08:00:00 -7,3 -8,4 3 1 5 3 NW 996,1 1,5 0,4
18.11.2017 07:00:00 -7,5 -8,6 2 1 5 3 NNW 995,4 1,8 0,5
18.11.2017 06:00:00 -7,8 -8,9 0 0 6 3 N 995,2 1,6 0,3
18.11.2017 05:00:00 -8,1 -9,2 2 1 6 4 NW 994,9 7 0,0
18.11.2017 04:00:00 -7,9 -9,0 4 2 7 4 W 994,8 50 0,0
18.11.2017 03:00:00 -7,8 -8,9 3 2 9 5 ZZO 994,7 50 0,0
18.11.2017 02:00:00 -7,5 -8,4 3 2 9 5 OZO 994,4 50 0,0
18.11.2017 01:00:00 -7,7 -8,6 5 3 10 6 ZZO 994,3 50 0,0
18.11.2017 00:00:00 -7,6 -8,4 5 3 13 7 O 993,7 50 0,0
17.11.2017 23:00:00 -7,8 -8,9 6 3 13 7 ZZO 993,7 38 0,0
17.11.2017 22:00:00 -7,0 -7,9 6 4 11 6 ZO 993,2 15 0,0
17.11.2017 21:00:00 -6,8 -7,6 7 4 11 6 Z 993,0 9 0,0
17.11.2017 20:00:00 -7,0 -7,8 5 3 11 6 ZZO 992,8 6 0,0
17.11.2017 19:00:00 -7,2 -8,1 7 4 9 5 ZZO 992,8 6 0,1
17.11.2017 18:00:00 -7,1 -7,9 6 4 9 5 Z 992,7 20 0,0
17.11.2017 17:00:00 -6,5 -7,4 3 2 8 4 OZO 992,7 7 0,2
17.11.2017 16:00:00 -6,2 -7,1 5 3 8 4 ZZO 992,8 2,0 0,6
17.11.2017 15:00:00 -6,2 -7,0 5 3 8 4 ZZO 992,8 1,6 0,6
17.11.2017 14:00:00 -6,1 -7,0 5 3 11 6 ZO 992,7 2,0 0,5
17.11.2017 13:00:00 -6,0 -6,9 4 2 12 7 Z 992,8 1,2 0,8
17.11.2017 12:00:00 -6,0 -7,1 7 4 12 7 ZZO 993,0 7 0,4
17.11.2017 11:00:00 -5,8 -6,7 6 3 15 8 ZO 993,3 2,8 0,3
17.11.2017 10:00:00 -5,7 -6,8 6 3 15 8 ZO 993,5 6 0,1
17.11.2017 09:00:00 -5,7 -6,5 4 2 11 6 Z 993,6 9 0,1
17.11.2017 08:00:00 -6,0 -6,8 4 2 9 5 ZZO 993,9 6 0,0
17.11.2017 07:00:00 -5,7 -6,5 4 2 17 9 ZO 994,2 20 0,1
17.11.2017 06:00:00 -5,3 -6,1 6 3 17 9 ZZO 994,7 2,8 0,4
17.11.2017 05:00:00 -5,0 -5,8 10 6 17 9 OZO 995,2 1,3 0,9
17.11.2017 04:00:00 -5,3 -6,0 4 2 9 5 Z 995,8 1,8 1,0
17.11.2017 03:00:00 -5,9 -6,7 6 4 15 8 ZZO 996,8 0,9 1,0
17.11.2017 02:00:00 -6,3 -7,1 8 5 15 8 ZZO 997,8 1,5 0,7
17.11.2017 01:00:00 -6,6 -7,4 10 5 18 10 ZO 998,4 2,1 0,3
17.11.2017 00:00:00 -6,3 -7,2 8 5 18 10 ZZO 999,1 50 0,0
16.11.2017 23:00:00 -7,6 -8,4 5 3 13 7 ZZO 1000,3 36 0,0
16.11.2017 22:00:00 -9,9 -11,1 8 4 18 10 ZZO 1001,8 45 0,0
16.11.2017 21:00:00 -9,1 -10,2 7 4 18 10 ZZO 1002,5 47 0,0
16.11.2017 20:00:00 -12,4 -13,6 11 6 16 9 ZO 1003,5 38 0,0
16.11.2017 19:00:00 -15,1 -16,6 5 3 10 6 WNW 1004,5 46 0,0
16.11.2017 18:00:00 -15,2 -16,9 4 2 14 7 WZW 1005,8 50 0,0
16.11.2017 17:00:00 -13,3 -14,7 8 4 14 7 NW 1005,7 20 0,0
16.11.2017 16:00:00 -11,0 -12,5 6 3 14 7 WNW 1006,6 39 0,0
16.11.2017 15:00:00 -7,4 -8,8 3 1 14 7 WNW 1007,2 50 0,0
16.11.2017 14:00:00 -6,0 -8,1 6 4 27 14 NW 1007,7 47 0,0
16.11.2017 13:00:00 -2,4 -6,6 12 7 32 18 Z 1007,1 50 0,0
16.11.2017 12:00:00 -3,6 -6,9 14 7 33 18 NW 1006,9 50 0,0
16.11.2017 11:00:00 -2,5 -5,3 8 4 33 18 NO 1006,9 50 0,0
16.11.2017 10:00:00 -1,9 -4,7 18 10 32 17 N 1006,7 50 0,0
16.11.2017 09:00:00 -2,7 -4,9 10 5 32 17 NW 1007,0 50 0,0
16.11.2017 08:00:00 -2,2 -4,2 13 7 26 14 NNW 1006,7 48 0,1
16.11.2017 07:00:00 -1,3 -2,4 15 8 35 19 NW 1006,5 1,4 0,3
16.11.2017 06:00:00 -1,5 -2,1 13 7 35 19 NW 1006,4 2,2 0,7
16.11.2017 05:00:00 -0,9 -2,6 14 8 32 18 NW 1006,3 1,8 0,1
16.11.2017 04:00:00 -1,6 -3,6 10 5 34 18 NW 1005,9 7 0,0
16.11.2017 03:00:00 -1,5 -3,7 13 7 34 18 NNW 1005,4 15 0,2
16.11.2017 02:00:00 -1,4 -2,4 15 8 37 20 NNW 1005,5 1,5 0,2
16.11.2017 01:00:00 -1,1 -2,8 20 11 37 20 N 1004,9 7 0,1
16.11.2017 00:00:00 -1,7 -4,7 14 8 28 15 NW 1004,7 48 0,0
15.11.2017 23:00:00 -2,5 -5,6 18 10 31 17 NW 1003,5 50 0,0
15.11.2017 22:00:00 -3,3 -5,5 16 8 31 17 NNW 1002,9 50 0,0
15.11.2017 21:00:00 -6,7 -8,2 12 6 19 10 WNW 1002,4 50 0,0
15.11.2017 20:00:00 -9,4 -10,9 8 4 14 8 WNW 1002,3 50 0,0
15.11.2017 19:00:00 -8,2 -9,4 6 3 11 6 NW 1001,5 50 0,0
15.11.2017 18:00:00 -9,0 -10,2 7 4 11 6 NW 1001,1 50 0,0
15.11.2017 17:00:00 -9,4 -10,9 9 5 11 6 NNW 1000,8 42 0,0
15.11.2017 16:00:00 -9,4 -10,7 5 3 13 7 NNW 1000,9 9 0,0
15.11.2017 15:00:00 -10,8 -12,3 4 2 13 7 NNW 1000,9 9 0,0
15.11.2017 14:00:00 -12,5 -13,9 5 3 11 6 W 1001,0 50 0,0
15.11.2017 13:00:00 -13,7 -15,5 2 1 13 7 N 1001,1 50 0,0
15.11.2017 12:00:00 -13,8 -15,6 8 4 14 8 NW 1001,1 50 0,0
15.11.2017 11:00:00 -14,5 -16,5 5 3 16 8 WNW 1001,2 50 0,0
15.11.2017 10:00:00 -14,8 -16,6 8 5 16 8 NW 1001,7 50 0,0
15.11.2017 09:00:00 -14,1 -15,8 7 4 13 7 NW 1001,2 50 0,0
15.11.2017 08:00:00 -12,3 -13,9 6 3 14 7 WNW 1001,4 50 0,0
15.11.2017 07:00:00 -13,2 -15,0 6 4 14 8 N 1001,2 50 0,0
15.11.2017 06:00:00 -12,2 -13,5 6 3 14 8 NW 1000,8 50 0,0
15.11.2017 05:00:00 -12,7 -14,4 6 3 13 7 NNW 1001,1 50 0,0
15.11.2017 04:00:00 -11,7 -13,1 7 4 14 8 WNW 1001,4 50 0,0
15.11.2017 03:00:00 -12,0 -13,4 6 4 14 8 NW 1001,8 50 0,0
15.11.2017 02:00:00 -13,2 -14,5 7 4 14 7 WNW 1002,2 50 0,0
15.11.2017 01:00:00 -15,0 -16,8 8 4 16 9 NNW 1002,7 50 0,0
15.11.2017 00:00:00 -14,4 -16,4 6 3 16 9 WNW 1003,0 50 0,0
14.11.2017 23:00:00 -14,6 -16,0 8 4 16 8 NW 1003,0 50 0,0
14.11.2017 22:00:00 -13,8 -15,5 7 4 13 7 NNW 1003,0 50 0,0
14.11.2017 21:00:00 -14,8 -16,5 10 5 13 7 NNW 1003,4 50 0,0
14.11.2017 20:00:00 -13,9 -15,5 5 3 13 7 NW 1003,3 34 0,0
14.11.2017 19:00:00 -13,7 -15,4 8 4 13 7 NW 1003,1 50 0,0
14.11.2017 18:00:00 -14,5 -16,2 5 3 12 6 NW 1003,3 30 0,0
14.11.2017 17:00:00 -13,1 -14,7 8 4 12 7 W 1003,2 50 0,0
14.11.2017 16:00:00 -12,5 -13,9 8 4 12 7 NW 1002,8 50 0,0
14.11.2017 15:00:00 -11,8 -13,2 5 3 12 6 WNW 1002,8 50 0,0
14.11.2017 14:00:00 -10,8 -11,8 6 3 11 6 NW 1002,7 50 0,0
14.11.2017 13:00:00 -11,3 -12,7 8 4 11 6 WNW 1002,9 50 0,0
14.11.2017 12:00:00 -8,7 -9,6 2 1 15 8 WNW 1002,6 50 0,0
14.11.2017 11:00:00 -9,0 -10,9 7 4 15 8 WNW 1002,7 50 0,0
14.11.2017 10:00:00 -9,5 -10,6 9 5 14 7 NNW 1003,0 50 0,0
14.11.2017 09:00:00 -8,3 -9,1 8 4 21 12 WNW 1002,8 48 0,0
14.11.2017 08:00:00 -7,5 -8,6 8 4 23 13 ZZO 1002,8 50 0,0
14.11.2017 07:00:00 -4,1 -5,8 13 7 23 13 WNW 1002,0 50 0,0
14.11.2017 06:00:00 -3,7 -6,0 13 7 25 14 NW 1002,2 50 0,0
14.11.2017 05:00:00 -2,6 -5,1 11 6 26 14 NNW 1002,3 49 0,0
14.11.2017 04:00:00 -1,8 -3,8 13 7 39 21 NNW 1002,8 50 0,0
14.11.2017 03:00:00 -1,8 -4,1 14 7 46 25 NNW 1002,9 50 0,0
14.11.2017 02:00:00 -1,7 -4,7 19 10 46 25 NW 1002,6 50 0,0
14.11.2017 01:00:00 -1,2 -3,4 21 12 39 21 NNW 1002,9 50 0,0

tt = temperatuur
td = dauwpunt
ff = windsnelheid
fx = windstoten
dd = windrichting
ppp = luchtdruk
vv = zicht
rr = neerslag

Weerstations in de omgeving